Airfield :
LOGIN :

Register | Disclaimer

   EN    FR    IT 

 










Legend :    VFR   Marginal VFR   IFR   Intensive IFR   Very Intensive IFR
Visi :
Ceiling :
>= 8 km
>= 3000ft
5 to 8 km
1000 to 3000 ft
1500m to 5 km
500 to 1000 ft
800 to 1500m
200 to 500 ft
< 800m
< 200 ft
Symbols :   Thunderstorms  Fog  Heavy snow  Heavy precipitations  Wind > 20 kt
SIGMETs :     Misc.  Thunderstorms  Icing  Turbulence  Mountain Waves  Volcanic Ashes






- Airport Elevation : 1455 ft


ETIH - Hohenfels Army Air Field

CURRENT METAR :
  • 231056Z AUTO 32006KT 9999 BKN037 BKN045 09/01 A3035 RMK AO2 SLP288 T00880005 $

EXPIRED METARs :
  • 230956Z AUTO 26009KT 9999 FEW029 BKN040 07/00 A3035 RMK AO2 SLP290 T00740001
  • 230856Z AUTO 29007KT 9999 SCT022 SCT030 BKN038 07/02 A3035 RMK AO2 SLP290 T00730016 52019 $
  • 230846Z AUTO 27004KT 9999 SCT022 SCT030 BKN036 08/02 A3035 RMK AO2 SLP290 $
  • 230831Z AUTO 26005KT 9999 FEW021 BKN029 BKN035 07/02 A3034 RMK AO2 CIG 020V034 BKN029 V SCT SLP286 $

Expired Forecast.



MET'MAP, your aeronautical weather chart ! - Copyright ORBIFLY December 2007 - Disclaimer

ORBIFLY MET'MAP TEAM :

Programming & Development : Alexandra Zaïnal
Concept & original design : Baudouin d'Aumeries
Assistance for programming : Marc-Olivier Méhu
Technical & hardware support : Manuel Goepfert

Contact : metmap@orbifly.com




SOURCES & CREDITS :

   NOAA